STARLINK-35610

Last updated on Fri Dec 12 2025 00:02:05 GMT+0000 (Coordinated Universal Time)

1 66428U 25259G 25345.50469431 .00088413 00000+0 20984-2 0 9998 2 66428 43.0080 55.0472 0002398 269.2664 90.7917 15.40713186 5973
UTC large
Height (km)
Speed (km/s)
/
Latitude / Longitude
Inclination (degrees)
Orbital Period (minutes)
Azimuth
Elevation
Range (km)
Doppler Factor

Next 0 passes for location: London (51.5072 / 0.1276)

Sorry there are no passes over London.